Flag for U.S.A. Weather past 2 weeks in Barnstable, Massachusetts, U.S.A.

Now
66 °F

Overcast.


Feels Like: 66 °F
Forecast: 54 / 69 °F
Wind: 8 mph from South

Location: Barnstable Municipal-Boardman Airport

Current Time: Sep 16, 2014 at 6:06:11 PM

Latest Report: Sep 16, 2014 at 4:56 PM


Visibility: 10 mi

Pressure: 29.94 "Hg

Humidity: 63%

Dew point: 53 °F

Location of BarnstableLocation

Historic Weather in Barnstable — Graph

°F

Barnstable temperature yesterday

Maximum temperature yesterday: 65 °F (at 10:56 AM)
Minimum temperature yesterday: 46 °F (at 5:56 AM)
Average temperature yesterday: 56 °F

Past Weeks' High & Low Weather Summary

 TemperatureHumidityPressure
High82 °F (Sep 3, 2:56 PM)97% (Sep 2, 4:56 AM)30.35 "Hg (Sep 2, 4:56 AM)
Low46 °F (Sep 15, 5:56 AM)44% (Sep 3, 2:56 PM)29.73 "Hg (Sep 3, 2:56 AM)
Average67 °F77%30.07 "Hg
* Reported Sep 1 4:56 PM — Sep 16 4:56 PM, Barnstable, Weather by CustomWeather, © 2014

Note: Actual official high and low records may vary slightly from our data, if they occured in-between our weather recording intervals... More about our weather records

Advertising

Barnstable weather history for previous 24 hours

 ConditionsComfort  
Time TempWeatherWind HumidityBarometerVisibility
4:56 PM
Sep 16
66 °FOvercast.8 mph63%29.94 "Hg10 mi
3:56 PM65 °FOvercast.5 mph63%29.95 "Hg10 mi
2:56 PM68 °FScattered clouds.12 mph57%29.95 "Hg10 mi
1:56 PM66 °FOvercast.9 mph61%29.96 "Hg10 mi
12:56 PM66 °FOvercast.7 mph63%29.98 "Hg10 mi
11:56 AM67 °FBroken clouds.7 mph63%29.98 "Hg10 mi
10:56 AM66 °FPassing clouds.7 mph65%30.01 "Hg10 mi
9:56 AM64 °FPartly sunny.3 mph70%30.03 "Hg10 mi
8:56 AM62 °FBroken clouds.No wind75%30.03 "Hg10 mi
7:56 AM58 °FMostly cloudy.No wind87%30.04 "Hg10 mi
6:56 AM56 °FMostly cloudy.No wind90%30.04 "Hg10 mi
5:56 AM54 °FMostly cloudy.No wind86%30.05 "Hg10 mi
4:56 AM54 °FClear.No wind86%30.04 "Hg10 mi
3:56 AM52 °FClear.No wind86%30.05 "Hg10 mi
2:56 AM57 °FOvercast.No wind74%30.07 "Hg10 mi
1:56 AM49 °FPassing clouds.No wind90%30.08 "Hg10 mi
12:56 AM50 °FClear.No wind86%30.09 "Hg10 mi
11:56 PM
Sep 15
52 °FClear.No wind80%30.10 "Hg10 mi
10:56 PM51 °FClear.3 mph83%30.11 "Hg10 mi
9:56 PM51 °FClear.3 mph83%30.13 "Hg10 mi
8:56 PM52 °FClear.3 mph80%30.13 "Hg10 mi
7:56 PM52 °FClear.No wind80%30.13 "Hg10 mi
6:56 PM57 °FSunny.3 mph72%30.12 "Hg10 mi
Weather by CustomWeather, © 2014

See weather overviewHow to use our weather pages